Tracking 25648 objects as of 17-May-2022
HD Live streaming from Space Station
objects crossing your sky now

FALCON 9 R/B

Track FALCON 9 R/B now!


NORAD ID: 40426
Int'l Code: 2015-010C
Perigee: 435.0 km
Apogee: 62,139.8 km
Inclination: 23.9 °
Period: 1,212.1 minutes
Semi major axis: 37658 km
RCS: Unknown
Launch date: March 2, 2015
Source: United States (US)
Launch site: AIR FORCE EASTERN TEST RANGE (AFETR)

Note: This is a ROCKET BODY
aabbcc
Your satellite tracking list
Your tracking list is empty




NASA's NSSDC Master Catalog

Two Line Element Set (TLE):
1 40426U 15010C   22135.55706091 -.00000098  00000-0  14690-3 0  9990
2 40426  23.8756 300.0264 8192709 242.0590  16.9624  1.18798424 30883
Source of the keplerian elements: AFSPC